Weather History for Saranac Lake, NY

Change the Weather History Date:

Wednesday, December 5, 2012

  Actual Average Record
Temperature  
Mean Temperature 32 °F 23 °F  
Max Temperature 44 °F 33 °F 55 °F (1999)
Min Temperature 20 °F 14 °F -18 °F (2003)
Degree Days  
Heating Degree Days 33 42  
Month to date heating degree days 153 204  
Since 1 July heating degree days 2316 2479  
Moisture  
Dew Point 26 °F    
Average Humidity 80    
Maximum Humidity 92    
Minimum Humidity 68    
Precipitation  
Precipitation 0.24 in 0.10 in 1.20 in (1950)
Month to date precipitation 1.03 0.47  
Year to date precipitation 31.98 35.70  
Sea Level Pressure  
Sea Level Pressure 30.00 in    
Wind  
Wind Speed 8 mph (West)    
Max Wind Speed 15 mph    
Max Gust Speed 25 mph    
Visibility 6 miles    
Events Rain , Snow    
T = Trace of Precipitation, MM = Missing Value Source: NWS Daily Summary

Daily Weather History Graph

Daily Weather History Graph

Search for Another Location

Airport:

Trip Planner

Search our weather history database for the weather conditions in past years. The results will help you decide how hot, cold, wet, or windy it might be!

Date:

Astronomy

Dec. 05, 2012 Rise Set
Actual Time 7:17 AM EST 4:17 PM EST
Civil Twilight 6:44 AM EST 4:50 PM EST
Nautical Twilight 6:08 AM EST 5:27 PM EST
Astronomical Twilight 5:33 AM EST 6:02 PM EST
Moon 11:16 PM EST (12/5) 11:29 AM EST (12/5)
Length of Visible Light 10h 05m
Length of Day
9h 00m
Waning Gibbous, 60% of the Moon is Illuminated
Dec 5
Waning Gibbous
Dec 6
Last Quarter
Dec 13
New
Dec 20
First Quarter
Dec 28
Full

Hourly Weather History & Observations

Time (EST) Temp. Windchill Dew Point Humidity Pressure Visibility Wind Dir Wind Speed Gust Speed Precip Events Conditions
12:21 AM 44.6 °F 41.4 °F 42.8 °F 93% 29.85 in 5.0 mi WSW 5.8 mph - 0.03 in Rain Rain
12:31 AM 44.6 °F 41.4 °F 42.8 °F 93% 29.85 in 5.0 mi WSW 5.8 mph - 0.05 in Rain Rain
12:51 AM 44.1 °F 41.5 °F 42.1 °F 93% 29.86 in 5.0 mi SW 4.6 mph - 0.08 in Rain Light Rain
1:00 AM 44.6 °F 40.2 °F 42.8 °F 93% 29.84 in 6.0 mi WSW 8.1 mph 16.1 mph 0.01 in Rain Light Rain
1:51 AM 42.1 °F 36.6 °F 39.9 °F 92% 29.87 in 5.0 mi WSW 9.2 mph - 0.10 in Rain Rain
2:15 AM 41.0 °F 33.1 °F 37.4 °F 87% 29.86 in 4.0 mi SW 15.0 mph 21.9 mph 0.05 in Rain Rain
2:37 AM 39.2 °F 32.5 °F 37.4 °F 93% 29.85 in 10.0 mi WSW 10.4 mph 16.1 mph 0.06 in Rain Light Rain
2:48 AM 39.2 °F 32.5 °F 37.4 °F 93% 29.85 in 10.0 mi SW 10.4 mph - 0.06 in   Overcast
2:49 AM 39.9 °F 33.4 °F 37.9 °F 93% 29.86 in 10.0 mi SW 10.4 mph - 0.06 in   Overcast
2:53 AM 39.2 °F 33.6 °F 37.4 °F 93% 29.85 in 10.0 mi SW 8.1 mph - N/A   Overcast
3:51 AM 39.0 °F 33.4 °F 37.0 °F 93% 29.86 in 10.0 mi WSW 8.1 mph - 0.00 in Rain Light Rain
4:03 AM 39.2 °F 33.6 °F 37.4 °F 93% 29.83 in 10.0 mi WSW 8.1 mph - N/A   Overcast
4:46 AM 39.2 °F 33.0 °F 37.4 °F 93% 29.84 in 10.0 mi WSW 9.2 mph - N/A   Overcast
4:51 AM 39.9 °F 33.4 °F 37.9 °F 93% 29.86 in 10.0 mi WSW 10.4 mph 19.6 mph N/A   Overcast
5:17 AM 39.2 °F 34.2 °F 37.4 °F 93% 29.85 in 10.0 mi West 6.9 mph - N/A   Overcast
5:51 AM 39.0 °F 35.7 °F 36.0 °F 89% 29.88 in 10.0 mi West 4.6 mph - N/A   Overcast
6:51 AM 37.9 °F 31.5 °F 35.1 °F 89% 29.90 in 10.0 mi WSW 9.2 mph - N/A   Overcast
7:18 AM 37.4 °F 29.3 °F 33.8 °F 87% 29.88 in 9.0 mi West 12.7 mph 20.7 mph N/A   Overcast
7:39 AM 37.4 °F 32.1 °F 33.8 °F 87% 29.89 in 9.0 mi Variable 6.9 mph 19.6 mph 0.00 in   Overcast
7:51 AM 36.0 °F 27.5 °F 30.9 °F 82% 29.92 in 9.0 mi West 12.7 mph 25.3 mph 0.00 in Rain Light Rain
9:51 AM 32.0 °F 25.6 °F 25.0 °F 75% 29.98 in 10.0 mi West 6.9 mph 19.6 mph N/A   Overcast
10:51 AM 30.0 °F 24.1 °F 24.1 °F 79% 30.01 in 9.0 mi Variable 5.8 mph - 0.00 in   Overcast
11:51 AM 28.0 °F 20.0 °F 21.0 °F 75% 30.01 in 9.0 mi WNW 8.1 mph 24.2 mph 0.00 in   Overcast
12:09 PM 26.6 °F 16.8 °F 21.2 °F 80% 29.97 in 1.8 mi WNW 10.4 mph 16.1 mph 0.00 in Snow Light Snow
12:51 PM 26.1 °F 16.2 °F 21.0 °F 81% 30.03 in 1.2 mi WNW 10.4 mph 19.6 mph 0.01 in Snow Light Snow
1:00 PM 26.6 °F 16.2 °F 19.4 °F 74% 29.98 in 2.5 mi WNW 11.5 mph 21.9 mph 0.00 in Snow Light Snow
1:07 PM 26.6 °F 16.8 °F 19.4 °F 74% 29.98 in 5.0 mi WNW 10.4 mph 23.0 mph 0.00 in Snow Light Snow
1:37 PM 26.6 °F 17.5 °F 19.4 °F 74% 29.99 in 4.0 mi WNW 9.2 mph 18.4 mph 0.00 in Snow Light Snow
1:48 PM 26.6 °F 19.1 °F 19.4 °F 74% 29.99 in 4.0 mi West 6.9 mph 20.7 mph 0.00 in Snow Light Snow
1:51 PM 26.1 °F 18.4 °F 19.9 °F 78% 30.04 in 3.0 mi Variable 6.9 mph - 0.00 in Snow Light Snow
2:03 PM 26.6 °F 20.0 °F 19.4 °F 74% 30.00 in 2.5 mi WNW 5.8 mph - 0.00 in Snow Light Snow
2:20 PM 26.6 °F 15.7 °F 19.4 °F 74% 30.01 in 4.0 mi West 12.7 mph 20.7 mph 0.00 in Snow Light Snow
2:42 PM 26.6 °F 16.8 °F 17.6 °F 69% 30.02 in 7.0 mi WNW 10.4 mph 18.4 mph 0.00 in Snow Light Snow
2:51 PM 26.1 °F 18.4 °F 16.0 °F 66% 30.08 in 10.0 mi Variable 6.9 mph 25.3 mph 0.00 in   Overcast
3:31 PM 24.8 °F 16.9 °F 17.6 °F 74% 30.05 in 10.0 mi WNW 6.9 mph - 0.00 in   Overcast
3:51 PM 25.0 °F 15.5 °F 16.0 °F 69% 30.12 in 10.0 mi WNW 9.2 mph 18.4 mph 0.00 in   Overcast
4:06 PM 24.8 °F 15.3 °F 17.6 °F 74% 30.07 in 1.8 mi WNW 9.2 mph 18.4 mph 0.00 in Snow Light Snow
4:23 PM 24.8 °F 17.9 °F 17.6 °F 74% 30.07 in 3.0 mi Variable 5.8 mph - 0.00 in Snow Light Snow
4:51 PM 24.1 °F 14.4 °F 17.1 °F 75% 30.14 in 7.0 mi WNW 9.2 mph - 0.00 in Snow Light Snow
5:51 PM 23.0 °F 14.7 °F 17.1 °F 78% 30.17 in 3.0 mi WNW 6.9 mph 19.6 mph 0.00 in Snow Light Snow
6:31 PM 23.0 °F 13.9 °F 15.8 °F 74% 30.12 in 10.0 mi WNW 8.1 mph - 0.00 in   Overcast
6:51 PM 23.0 °F 15.8 °F 16.0 °F 74% 30.19 in 8.0 mi Variable 5.8 mph - 0.00 in   Overcast
7:44 PM 21.2 °F 13.6 °F 17.6 °F 86% 30.14 in 1.8 mi Variable 5.8 mph - 0.00 in Snow Light Snow
7:51 PM 21.9 °F 12.5 °F 17.1 °F 82% 30.21 in 1.8 mi WNW 8.1 mph 18.4 mph 0.00 in Snow Light Snow
8:51 PM 21.0 °F 13.4 °F 18.0 °F 88% 30.22 in 1.8 mi WNW 5.8 mph - 0.00 in Snow Light Snow
9:19 PM 21.2 °F 13.6 °F 17.6 °F 86% 30.16 in 2.0 mi Variable 5.8 mph - 0.00 in Snow Light Snow
9:36 PM 21.2 °F - 17.6 °F 86% 30.17 in 3.0 mi Calm Calm - 0.00 in Snow Light Snow
10:51 PM 19.9 °F 12.1 °F 14.0 °F 78% 30.26 in 8.0 mi Variable 5.8 mph - 0.00 in   Overcast
11:35 PM 19.4 °F 14.3 °F 15.8 °F 86% 30.19 in 2.5 mi Variable 3.5 mph - 0.00 in Snow Light Snow
11:43 PM 19.4 °F 9.5 °F 14.0 °F 80% 30.19 in 6.0 mi WNW 8.1 mph - 0.00 in Snow Light Snow
11:51 PM 19.9 °F 12.1 °F 14.0 °F 78% 30.27 in 10.0 mi NW 5.8 mph - 0.00 in   Overcast